Flag for Hungary Weather past 2 weeks in Debrecen, Hungary

Now
30 °F

Ice fog.


Feels Like: 23 °F
Forecast: 29 / 35 °F
Wind: 7 mph from North

Location: Debrecen Airport

Current Time: Jan 28, 2015 at 7:35:58 AM

Latest Report: Jan 28, 2015 at 6:45 AM


Visibility: 1 mi

Pressure: 30.01 "Hg

Humidity: 100%

Dew point: 30 °F

Location of DebrecenLocation

Historic Weather in Debrecen — Graph

°F

Debrecen temperature yesterday

Maximum temperature yesterday: 36 °F (at 12:45 PM)
Minimum temperature yesterday: 30 °F (at 5:45 AM)
Average temperature yesterday: 34 °F

Past Weeks' High & Low Weather Summary

 TemperatureHumidityPressure
High52 °F (Jan 21, 2:15 PM)100% (Jan 15, 5:15 AM)30.27 "Hg (Jan 15, 5:15 AM)
Low27 °F (Jan 14, 5:15 AM)49% (Jan 16, 1:15 PM)29.71 "Hg (Jan 24, 2:15 PM)
Average40 °F87%30.02 "Hg
* Reported Jan 13 6:15 AM — Jan 28 6:15 AM, Debrecen, Weather by CustomWeather, © 2014

Note: Actual official high and low records may vary slightly from our data, if they occured in-between our weather recording intervals... More about our weather records

Advertising

Debrecen weather history for previous 24 hours

 ConditionsComfort  
Time TempWeatherWind HumidityBarometerVisibility
6:15 AM
Jan 28
32 °FIce fog.5 mph93%30.01 "Hg2 mi
5:15 AM32 °FPassing clouds.3 mph93%30.01 "Hg4 mi
4:45 PM
Jan 27
34 °FMostly cloudy.2 mph81%30.01 "Hg4 mi
4:15 PM34 °FOvercast.2 mph81%30.01 "Hg4 mi
3:45 PM34 °FOvercast.5 mph81%30.01 "Hg4 mi
3:15 PM36 °FFog.5 mph75%30.01 "Hg3 mi
2:45 PM36 °FFog.3 mph81%30.01 "Hg2 mi
2:15 PM36 °FFog.3 mph87%30.01 "Hg2 mi
1:45 PM36 °FFog.2 mph81%30.01 "Hg2 mi
1:15 PM36 °FFog.3 mph81%30.01 "Hg2 mi
12:45 PM36 °FFog.7 mph81%30.01 "Hg2 mi
12:15 PM34 °FFog.7 mph100%30.01 "Hg2 mi
11:48 AM34 °FLight rain. More clouds than sun.5 mph100%30.04 "Hg1 mi
11:45 AM34 °FLight rain. Overcast.5 mph100%30.04 "Hg1 mi
11:15 AM34 °FFog.3 mph100%30.04 "Hg1 mi
10:45 AM34 °FLight snow. Overcast.3 mph93%30.04 "Hg1 mi
10:15 AM34 °FLight snow. Overcast.5 mph93%30.04 "Hg1 mi
9:45 AM34 °FLight snow. Overcast.3 mph93%30.04 "Hg1 mi
9:15 AM32 °FLight snow. Overcast.3 mph100%30.04 "Hg1 mi
8:45 AM32 °FLight snow. Overcast.2 mph100%30.04 "Hg1 mi
8:15 AM32 °FIce fog.3 mph93%30.04 "Hg1 mi
7:45 AM32 °FIce fog.3 mph93%30.04 "Hg1 mi
7:15 AM32 °FIce fog.3 mph93%30.04 "Hg2 mi
Weather by CustomWeather, © 2014

See weather overviewHow to use our weather pages